Weather History for Andrews, NC

Change the Weather History Date:

Thursday, February 9, 2012

  Actual Average (KTYS) Record (KTYS)
Temperature  
Mean Temperature 42 °F 41 °F  
Max Temperature 53 °F 51 °F 73 °F (2001)
Min Temperature 32 °F 31 °F 0 °F (1895)
Degree Days  
Heating Degree Days 22 24  
Month to date heating degree days 224  
Since 1 July heating degree days 2486  
Cooling Degree Days 0 0  
Month to date cooling degree days 0  
Year to date cooling degree days 0  
Moisture  
Dew Point 31 °F    
Average Humidity 67    
Maximum Humidity 93    
Minimum Humidity 44    
Precipitation  
Precipitation 0.00 in 0.16 in 2.70 in (1891)
Month to date precipitation 1.37  
Year to date precipitation 5.69  
Snow  
Snow 0.00 in 0.00 in - ()
Month to date snowfall 0.6  
Since 1 July snowfall 4.1  
Snow Depth -    
Sea Level Pressure  
Sea Level Pressure 30.21 in    
Wind  
Wind Speed 5 mph (NW)    
Max Wind Speed 13 mph    
Max Gust Speed 18 mph    
Visibility 10 miles    
Events      
T = Trace of Precipitation, MM = Missing Value Source: NWS Daily Summary

Daily Weather History Graph

Daily Weather History Graph

Search for Another Location

Airport:

Trip Planner

Search our weather history database for the weather conditions in past years. The results will help you decide how hot, cold, wet, or windy it might be!

Date:

Astronomy

Feb. 09, 2012 Rise Set
Actual Time 7:28 AM EST 6:11 PM EST
Civil Twilight 7:01 AM EST 6:37 PM EST
Nautical Twilight 6:31 AM EST 7:07 PM EST
Astronomical Twilight 6:02 AM EST 7:37 PM EST
Moon 8:30 PM EST (2/9) 8:10 AM EST (2/9)
Length of Visible Light 11h 35m
Length of Day
10h 43m
Waning Gibbous, 96% of the Moon is Illuminated
Feb 9
Waning Gibbous
Feb 14
Last Quarter
Feb 21
New
Feb 29
First Quarter
Mar 8
Full

Hourly Weather History & Observations

Time (EST) Temp. Windchill Dew Point Humidity Pressure Visibility Wind Dir Wind Speed Gust Speed Precip Events Conditions
12:15 AM 41.0 °F 39.0 °F 32.0 °F 70% 30.22 in 10.0 mi ENE 3.5 mph - N/A   Overcast
12:55 AM 41.0 °F 37.1 °F 32.0 °F 70% 30.22 in 10.0 mi NNE 5.8 mph - N/A   Overcast
1:15 AM 41.0 °F 39.0 °F 32.0 °F 70% 30.22 in 10.0 mi NNE 3.5 mph - N/A   Overcast
1:35 AM 39.2 °F 33.0 °F 32.0 °F 75% 30.21 in 10.0 mi ENE 9.2 mph - N/A   Overcast
1:55 AM 39.2 °F 35.0 °F 32.0 °F 75% 30.21 in 10.0 mi NNE 5.8 mph - N/A   Overcast
2:15 AM 37.4 °F 31.4 °F 32.0 °F 81% 30.21 in 10.0 mi North 8.1 mph - N/A   Overcast
2:35 AM 37.4 °F 32.8 °F 32.0 °F 81% 30.22 in 10.0 mi NNE 5.8 mph - N/A   Overcast
2:55 AM 37.4 °F 34.9 °F 32.0 °F 81% 30.22 in 10.0 mi NNE 3.5 mph - N/A   Overcast
3:15 AM 37.4 °F 32.8 °F 30.2 °F 75% 30.22 in 10.0 mi North 5.8 mph - N/A   Overcast
3:35 AM 37.4 °F 30.8 °F 30.2 °F 75% 30.22 in 10.0 mi North 9.2 mph - N/A   Mostly Cloudy
3:55 AM 37.4 °F 33.8 °F 30.2 °F 75% 30.21 in 10.0 mi NE 4.6 mph - N/A   Scattered Clouds
4:15 AM 37.4 °F - 30.2 °F 75% 30.22 in 10.0 mi Calm Calm - N/A   Mostly Cloudy
4:35 AM 37.4 °F 32.8 °F 30.2 °F 75% 30.22 in 10.0 mi North 5.8 mph - N/A   Scattered Clouds
4:55 AM 35.6 °F 30.7 °F 30.2 °F 81% 30.22 in 10.0 mi ENE 5.8 mph - N/A   Scattered Clouds
5:15 AM 33.8 °F - 30.2 °F 87% 30.23 in 10.0 mi Calm Calm - N/A   Scattered Clouds
5:35 AM 33.8 °F - 30.2 °F 87% 30.24 in 10.0 mi Calm Calm - N/A   Mostly Cloudy
5:55 AM 33.8 °F 27.7 °F 30.2 °F 87% 30.23 in 10.0 mi NNE 6.9 mph - N/A   Overcast
6:15 AM 35.6 °F 29.9 °F 30.2 °F 81% 30.24 in 10.0 mi North 6.9 mph - N/A   Overcast
6:35 AM 35.6 °F 28.6 °F 30.2 °F 81% 30.24 in 10.0 mi NNE 9.2 mph - N/A   Mostly Cloudy
6:55 AM 35.6 °F 32.8 °F 30.2 °F 81% 30.24 in 10.0 mi NNE 3.5 mph - N/A   Scattered Clouds
7:15 AM 33.8 °F 29.6 °F 30.2 °F 87% 30.24 in 10.0 mi NNE 4.6 mph - N/A   Scattered Clouds
7:35 AM 33.8 °F 29.6 °F 30.2 °F 87% 30.25 in 10.0 mi NNE 4.6 mph - N/A   Scattered Clouds
7:55 AM 32.0 °F - 30.2 °F 93% 30.26 in 10.0 mi Calm Calm - N/A   Clear
8:15 AM 32.0 °F - 30.2 °F 93% 30.26 in 10.0 mi Calm Calm - N/A   Clear
8:35 AM 33.8 °F - 32.0 °F 93% 30.26 in 10.0 mi Calm Calm - N/A   Clear
8:55 AM 37.4 °F 33.8 °F 32.0 °F 81% 30.26 in 10.0 mi ESE 4.6 mph - N/A   Clear
9:15 AM 37.4 °F 33.8 °F 32.0 °F 81% 30.27 in 10.0 mi SE 4.6 mph - N/A   Clear
9:35 AM 39.2 °F - 30.2 °F 70% 30.27 in 10.0 mi Calm Calm - N/A   Clear
9:55 AM 39.2 °F - 30.2 °F 70% 30.27 in 10.0 mi Calm Calm - N/A   Clear
10:15 AM 41.0 °F - 32.0 °F 70% 30.26 in 10.0 mi Calm Calm - N/A   Clear
10:35 AM 41.0 °F 38.0 °F 32.0 °F 70% 30.26 in 10.0 mi SW 4.6 mph - N/A   Clear
10:55 AM 41.0 °F - 30.2 °F 65% 30.26 in 10.0 mi Calm Calm - N/A   Scattered Clouds
11:15 AM 42.8 °F 40.1 °F 32.0 °F 66% 30.26 in 10.0 mi WSW 4.6 mph - N/A   Clear
11:35 AM 42.8 °F 40.1 °F 32.0 °F 66% 30.25 in 10.0 mi West 4.6 mph - N/A   Clear
11:55 AM 44.6 °F 41.4 °F 32.0 °F 61% 30.24 in 10.0 mi WSW 5.8 mph - N/A   Clear
12:15 PM 46.4 °F - 32.0 °F 57% 30.22 in 10.0 mi Calm Calm - N/A   Clear
12:35 PM 46.4 °F 43.5 °F 32.0 °F 57% 30.22 in 10.0 mi West 5.8 mph - N/A   Clear
12:55 PM 48.2 °F - 32.0 °F 54% 30.20 in 10.0 mi West 10.4 mph - N/A   Clear
1:15 PM 50.0 °F - 32.0 °F 50% 30.19 in 10.0 mi WNW 11.5 mph - N/A   Clear
1:35 PM 50.0 °F - 32.0 °F 50% 30.18 in 10.0 mi WNW 10.4 mph 18.4 mph N/A   Clear
1:55 PM 50.0 °F - 32.0 °F 50% 30.17 in 10.0 mi West 12.7 mph 16.1 mph N/A   Clear
2:15 PM 50.0 °F - 32.0 °F 50% 30.16 in 10.0 mi West 5.8 mph - N/A   Clear
2:35 PM 51.8 °F - 32.0 °F 47% 30.15 in 10.0 mi West 9.2 mph - N/A   Clear
2:55 PM 51.8 °F - 32.0 °F 47% 30.15 in 10.0 mi SW 8.1 mph - N/A   Clear
3:15 PM 53.6 °F - 32.0 °F 44% 30.15 in 10.0 mi WSW 8.1 mph - N/A   Clear
3:35 PM 51.8 °F - 30.2 °F 44% 30.15 in 10.0 mi WSW 9.2 mph - N/A   Clear
3:55 PM 53.6 °F - 32.0 °F 44% 30.15 in 10.0 mi SW 8.1 mph - N/A   Clear
4:15 PM 53.6 °F - 32.0 °F 44% 30.15 in 10.0 mi West 6.9 mph - N/A   Clear
4:35 PM 51.8 °F - 32.0 °F 47% 30.15 in 10.0 mi SSW 4.6 mph - N/A   Clear
4:55 PM 51.8 °F - 32.0 °F 47% 30.15 in 10.0 mi West 8.1 mph - N/A   Clear
5:15 PM 51.8 °F - 32.0 °F 47% 30.15 in 10.0 mi WSW 9.2 mph - N/A   Clear
5:35 PM 51.8 °F - 32.0 °F 47% 30.15 in 10.0 mi WSW 6.9 mph - N/A   Clear
5:55 PM 50.0 °F - 32.0 °F 50% 30.15 in 10.0 mi WSW 3.5 mph - N/A   Clear
6:15 PM 46.4 °F 44.3 °F 32.0 °F 57% 30.15 in 10.0 mi West 4.6 mph - N/A   Clear
6:35 PM 44.6 °F 43.1 °F 32.0 °F 61% 30.15 in 10.0 mi West 3.5 mph - N/A   Clear
6:55 PM 42.8 °F - 32.0 °F 66% 30.15 in 10.0 mi Calm Calm - N/A   Clear
7:15 PM 41.0 °F - 32.0 °F 70% 30.15 in 10.0 mi Calm Calm - N/A   Clear
7:35 PM 41.0 °F - 32.0 °F 70% 30.16 in 10.0 mi Calm Calm - N/A   Clear
7:55 PM 41.0 °F - 32.0 °F 70% 30.16 in 10.0 mi Calm Calm - N/A   Clear
8:15 PM 39.2 °F - 32.0 °F 75% 30.16 in 10.0 mi Calm Calm - N/A   Clear
8:35 PM 39.2 °F - 32.0 °F 75% 30.17 in 10.0 mi Calm Calm - N/A   Clear
8:55 PM 37.4 °F - 32.0 °F 81% 30.18 in 10.0 mi Calm Calm - N/A   Clear
9:15 PM 37.4 °F - 32.0 °F 81% 30.19 in 10.0 mi Calm Calm - N/A   Clear
9:35 PM 35.6 °F - 32.0 °F 87% 30.19 in 10.0 mi Calm Calm - N/A   Clear
9:55 PM 35.6 °F - 32.0 °F 87% 30.20 in 10.0 mi Calm Calm - N/A   Clear
10:15 PM 33.8 °F - 32.0 °F 93% 30.18 in 10.0 mi Calm Calm - N/A   Clear
10:35 PM 33.8 °F - 32.0 °F 93% 30.18 in 10.0 mi Calm Calm - N/A   Clear
10:55 PM 33.8 °F - 32.0 °F 93% 30.18 in 10.0 mi Calm Calm - N/A   Clear
11:15 PM 33.8 °F - 32.0 °F 93% 30.18 in 10.0 mi Calm Calm - N/A   Clear
11:35 PM 32.0 °F - 32.0 °F 100% 30.18 in 10.0 mi Calm Calm - N/A   Clear
11:55 PM 32.0 °F - 32.0 °F 100% 30.18 in 10.0 mi Calm Calm - N/A   Clear